Location: Newark
(46.7000°N, 60.6000°W)
Time: 10:20:19
(UTC+00:00)

Transit 2A Rocket - Pass Details

Date: 31 October 2020
Orbit: 588 x 915 km, 66.7° (Epoch: 23 November)

Event Time Altitude Azimuth Distance (km) Brightness Sun altitude
Rises 15:24:06 0° 271° (W) 3,531 8.4 28.7°
Reaches altitude 10° 15:27:36 10° 290° (WNW) 2,562 7.6 28.8°
Maximum altitude 15:31:26 17° 330° (NNW) 2,046 6.9 28.8°
Drops below altitude 10° 15:35:09 10° 11° (N) 2,461 7.2 28.9°
Sets 15:38:26 0° 31° (NNE) 3,334 7.9 28.9°
